DECAYED

CZ-6A DEB, 60756 (Decayed)

Orbit data source: Space-Track

CZ-6A DEB, 60756 was space debris in LEO originally from a launch on Tue, 06 Aug 2024 UTC launched from the Taiyaun Space Center, China (TSC). Debris objects in space refer to the collection of defunct objects orbiting the Earth. Examples of debris include non-operational satellites, rocket bodies, and fragments generated from explosions, collisions, or faulty payload assembly.

Not visible in the next 10 days
Identifier
60756, 2024-140EF
Orbit
Decayed
Country
Flag of CNCN / PRC
Related business
Manufacturer
SAST
Mission
Decayed spacecraft
Bus & Motor
Unknown
Mass
Unknown
Launch date (UTC)
2024-08-06 (2 years ago)
Launch vehicle
Unknown
Launch site
Taiyaun Space Center, China (TSC)
Object type
Payload
Rocket body
Debris
Shape & HBR
Unknown shape, 0.1 m
Radar Cross Section
Medium (>0.1 m² and <1 m²)

Expand to show TLE details & history
Last TLE update: 1 year ago

TLE from 1 year ago
0 CZ-6A DEB
1 60756U 24140EF  25146.94189625  .04896719  34452-1  17750-1 0  9991
2 60756  88.9402 313.5582 0016054 303.7081  56.2673 15.92924025 41960
Epoch: 2025-05-26T22:36Z
TLE epoch observation values (Epoch: 2025-05-26T22:36:19.835Z)
Latitude
0.00003°
Longitude
89.72874°
Altitude
291.463 km
Speed
7.736 km/s
True Right ascension
20h 54m 13s
True Declination
0° 00' 00"
Sunlit
Object was in full shadow at epoch
Visualization orbit readout
Latitude
Unknown
Longitude
Unknown
Altitude
Unknown
Speed
Unknown
Apparent Right ascension
Unknown
Apparent Declination
Unknown
Sunlit
N/A
Visualization observer readout
Local Sidereal Time
10:19:34
Azimuth
Unknown
Elevation
Unknown
Doppler factor
Unknown
Orbital elements
Apogee altitude
301.52 km
Perigee altitude
280.107 km
Semi-major axis
6,668.95 km
Eccentricity
0.00161
Inclination
88.9402°
RAAN
313.5582°
Arg. of periapsis
303.7081°
True anomaly
56.42046°
Mean anomaly
56.2673°
Eccentric anomaly
56.34386°
Mean motion
3.98526 °/min
Orbital period
90.33 mins
BSTAR
0.01775
Loading maneuver chart data...
Computing Atmospheric mass density...
Loading historical data...
Loading historical data...
Loading historical data...
Loading historical data...
Loading historical data...
Loading historical data...
Loading historical data...

Documentation

Showing up to 5 results
|